Wind_Speed
18 19 19 18 16 14 14 15 15 13 17 22 20 16 16 15 14 16 18 17 17 17 17 18 22 21 18 16 17 16 16 17 16 17 20 23 24 24 23 23 23 23 23 26 31 32 32 34 36 37 35 35 35 34 32 31 31 30 29 28 28 28 27 26 25 25 24 22 21 20 19 19 18 18 18 18 19 19 18 18 16 15 16 15 15 16 16
20 19 19 20 17 14 15 16 15 14 16 20 18 16 17 16 14 17 19 18 17 18 20 20 20 21 20 19 17 15 16 18 19 18 20 22 23 23 25 28 28 27 24 23 28 32 32 31 34 37 37 35 34 33 33 32 32 32 31 30 29 29 28 27 27 26 24 23 22 21 20 20 19 20 21 20 20 19 19 19 17 16 17 17 17 18 17
19 18 18 18 15 14 14 11 12 18 21 18 14 14 16 16 16 16 18 18 16 16 19 19 19 19 19 21 20 17 16 17 19 19 19 20 22 22 24 26 26 26 25 23 26 29 31 32 33 35 38 38 36 34 33 33 32 32 32 31 30 29 29 28 27 27 25 23 23 22 21 21 21 22 22 20 19 19 19 20 19 17 18 18 18 19 18
16 17 17 15 13 14 15 12 14 19 20 15 11 12 15 17 18 18 17 17 15 14 17 19 20 19 19 21 22 21 20 19 18 19 19 18 20 22 24 24 23 24 25 25 26 28 30 32 33 34 38 40 38 36 34 33 31 30 31 31 30 29 30 29 27 26 26 24 23 22 22 22 22 22 21 20 20 20 21 22 21 20 20 20 20 20 20
14 13 15 18 18 16 15 17 19 18 19 19 18 19 19 16 15 16 17 18 17 17 19 21 21 20 19 21 22 22 22 22 21 21 20 19 20 24 26 24 23 24 25 25 25 26 28 31 32 33 37 40 39 37 36 35 33 33 33 31 29 30 32 29 27 27 27 26 24 23 22 22 22 22 22 23 23 24 24 23 21 21 22 22 23 22 22
16 12 16 21 22 18 17 20 20 16 19 25 27 27 26 20 17 16 16 18 19 18 19 21 22 22 21 20 21 22 22 21 20 21 22 21 21 23 26 26 24 24 25 25 24 24 25 30 32 32 34 38 41 40 38 37 37 39 39 35 34 34 34 31 29 28 29 28 25 23 22 22 23 24 24 25 26 26 25 23 20 21 23 24 25 25 25
17 15 16 18 18 18 18 20 21 20 22 25 26 25 23 21 20 18 16 19 21 18 19 22 23 24 23 21 22 24 23 20 19 19 21 23 23 21 23 25 24 24 26 27 26 24 23 27 30 31 32 35 40 42 42 42 43 44 44 41 39 39 37 33 30 29 31 33 31 28 25 24 24 25 26 26 27 26 25 24 23 23 24 25 26 26 27
16 16 17 15 15 17 16 15 19 22 23 22 20 19 18 17 18 18 17 19 20 20 21 23 23 24 24 23 24 26 25 24 23 21 20 21 23 22 22 23 24 24 26 28 28 25 23 24 27 30 33 35 38 43 46 47 46 46 46 44 42 43 41 34 28 29 33 36 35 31 28 26 25 25 26 26 27 26 26 26 26 26 25 24 25 26 28
17 17 17 16 16 17 16 15 17 22 24 19 14 14 15 14 15 18 18 17 19 21 21 22 22 24 24 23 25 27 26 25 26 25 21 20 21 22 23 24 25 24 25 27 28 27 24 23 24 27 32 35 37 41 47 50 49 46 47 48 46 46 44 36 29 31 35 36 35 32 29 28 27 27 27 28 27 27 27 28 28 28 27 24 23 25 27
18 15 15 16 15 14 16 18 20 24 26 18 11 14 17 14 13 16 16 16 18 19 20 20 21 23 24 23 25 27 27 25 25 26 23 19 18 20 22 25 25 24 24 25 27 27 24 24 25 24 27 33 38 40 44 50 52 49 49 50 47 44 43 37 33 35 36 35 35 33 30 30 29 28 29 29 28 28 28 29 28 28 27 25 25 27 29
17 14 15 16 15 15 17 20 24 25 21 14 13 18 20 15 14 15 15 15 17 18 20 21 21 22 24 24 25 27 27 24 23 24 24 22 22 22 22 25 25 25 24 24 26 24 18 21 28 25 22 29 37 40 43 48 50 50 50 49 45 42 42 40 37 38 37 34 33 32 30 29 29 29 30 30 30 29 30 30 29 29 29 28 28 31 32
14 13 14 14 15 18 19 21 25 23 17 13 14 17 18 17 17 16 14 14 16 17 18 19 20 22 23 24 25 26 26 25 23 22 24 24 24 22 22 24 25 24 23 23 26 26 17 15 23 23 22 27 34 39 44 48 49 50 50 48 44 40 41 40 35 32 32 32 33 32 30 28 29 31 31 32 32 32 32 32 31 30 29 30 32 33 33
12 12 13 12 14 19 20 21 23 21 17 16 17 16 18 20 19 16 14 15 16 16 17 17 18 20 22 23 24 24 24 23 23 22 20 19 19 20 21 21 23 24 23 22 24 28 24 19 23 25 23 23 25 31 40 45 48 48 47 48 46 41 39 37 30 27 28 31 33 33 30 29 31 31 31 32 33 34 33 31 30 32 34 35 35 34 33
16 16 16 13 14 19 21 21 23 21 19 20 19 19 21 22 18 15 14 16 17 16 16 17 17 18 20 21 22 21 21 21 21 21 18 15 16 19 18 17 20 22 22 21 21 25 25 23 23 24 22 19 18 22 30 38 43 44 43 44 44 43 40 36 32 31 31 31 33 35 34 33 33 32 32 32 32 33 32 30 30 33 35 33 31 33 36
19 17 16 14 17 21 22 21 22 21 21 21 21 21 23 20 16 15 15 16 17 17 16 16 16 17 18 18 19 19 20 20 21 21 19 18 18 18 16 16 18 19 19 19 19 21 23 22 19 19 19 19 18 20 23 30 36 41 43 43 43 42 40 36 35 36 34 31 32 35 35 35 35 34 35 35 33 31 30 31 34 34 32 29 27 31 35
20 18 17 17 19 22 22 21 21 20 19 19 20 21 21 17 14 15 17 18 18 17 16 16 15 15 16 15 16 17 18 19 20 20 20 19 20 21 17 14 14 14 14 13 12 14 17 18 16 15 17 18 19 20 22 25 30 35 39 40 40 40 39 35 35 36 36 34 33 33 33 35 36 35 34 34 34 32 31 32 36 38 37 33 31 28 27
21 20 19 20 19 20 21 19 17 15 17 19 20 22 23 19 16 17 19 19 19 17 16 15 15 15 14 13 13 13 14 15 17 18 19 19 21 22 18 14 12 12 12 11 10 11 13 14 13 15 17 17 16 17 18 22 25 30 33 33 33 35 36 35 34 34 35 35 33 32 32 34 35 35 33 32 31 31 31 33 36 38 38 38 38 36 36
24 22 21 21 21 23 23 20 16 15 16 19 21 23 24 21 17 17 19 20 19 18 16 15 15 15 14 12 12 12 12 12 13 15 16 18 21 21 18 14 13 12 12 12 11 12 12 11 11 13 14 14 13 14 17 20 23 27 30 31 32 32 31 31 32 33 34 34 34 34 35 36 36 36 35 33 32 31 31 31 30 30 29 30 32 35 35
24 23 23 24 25 25 23 21 20 20 19 19 22 24 24 20 17 18 20 20 19 18 17 16 16 15 14 12 12 12 13 12 13 14 15 17 20 20 18 17 15 14 13 13 12 12 12 10 8 9 10 11 12 13 16 20 23 26 29 32 33 33 31 30 32 33 33 34 35 36 36 37 38 38 35 34 33 33 33 30 25 22 21 20 21 22 22
23 22 24 26 26 24 22 22 22 22 22 22 23 25 25 22 20 21 21 21 20 18 17 17 16 16 15 13 12 13 14 14 15 16 16 17 19 20 20 19 18 16 16 15 13 12 14 12 9 8 9 10 10 9 8 10 14 19 23 26 27 27 25 24 25 26 27 29 29 31 32 33 36 37 36 34 34 34 34 32 27 23 22 20 19 19 20
24 24 24 26 26 23 22 22 22 23 24 23 23 25 26 25 25 24 22 22 21 19 17 17 16 16 15 15 14 14 15 16 17 18 19 19 20 21 21 20 19 18 19 18 15 13 14 14 13 11 10 9 10 9 8 6 6 8 11 12 12 12 10 10 11 12 14 16 17 17 19 21 23 26 27 28 28 28 28 26 23 22 22 21 20 20 20
26 25 23 24 24 22 21 20 21 23 25 24 23 23 24 25 26 24 22 22 21 19 17 17 16 16 16 17 16 15 16 18 19 20 21 21 21 22 22 22 21 20 20 20 19 16 14 13 13 12 10 10 12 12 11 11 10 8 7 9 10 8 7 7 7 8 8 9 11 11 12 13 14 16 17 18 18 18 19 19 18 18 18 18 19 19 20
26 24 22 22 23 22 20 19 20 22 22 22 21 21 22 23 24 23 22 21 21 20 18 17 17 17 18 19 19 18 18 20 21 23 23 23 22 23 23 23 23 22 22 23 22 19 16 15 13 11 11 14 14 13 12 12 12 11 10 10 9 7 7 8 9 9 8 8 9 9 10 10 11 11 12 12 12 13 13 14 15 15 16 17 18 19 20
25 23 22 23 24 23 22 22 23 23 22 22 21 21 22 21 21 21 21 21 22 21 19 18 18 19 19 20 20 20 20 21 23 25 26 26 26 27 27 27 26 24 24 24 24 21 20 19 18 16 16 17 16 14 14 15 14 13 12 12 10 10 10 10 10 9 8 7 7 7 8 9 9 10 11 12 13 14 15 16 17 18 19 19 20 20 20
24 23 24 25 26 25 25 25 25 26 26 25 24 23 22 22 22 22 22 22 24 23 21 19 19 20 21 21 20 19 20 22 25 27 28 29 29 29 30 30 28 26 25 25 24 23 23 23 21 19 18 18 16 15 16 15 13 13 13 13 12 12 11 10 10 9 8 9 9 10 10 11 12 12 13 14 15 16 17 18 19 19 19 19 19 18 18
26 27 28 29 28 25 24 24 26 27 27 26 25 24 23 23 24 24 24 25 25 25 23 21 20 21 21 22 21 20 21 23 26 29 29 29 30 31 31 31 30 28 27 27 25 24 24 25 23 20 17 16 16 15 13 12 12 12 12 12 12 12 12 11 11 11 11 11 11 11 12 12 13 13 13 14 14 15 15 16 16 17 17 17 16 16 16
32 31 32 33 31 27 25 26 27 27 27 27 26 25 24 24 25 26 26 26 26 25 24 23 22 21 22 23 24 24 24 24 25 28 30 31 31 32 33 32 31 30 29 27 26 26 25 24 23 21 19 17 16 15 14 13 13 13 12 13 13 13 13 12 12 11 11 12 12 12 12 12 12 13 12 13 13 13 13 14 14 14 14 14 14 15 15
33 33 34 33 31 29 28 29 29 28 28 28 27 25 24 23 24 24 25 24 24 24 23 23 22 22 22 23 24 25 26 27 27 28 31 33 32 33 34 33 31 30 29 27 26 27 27 25 23 21 19 18 18 17 16 15 15 14 14 14 14 13 13 12 12 12 12 12 11 12 12 12 12 12 12 12 12 12 12 13 13 13 14 14 14 15 16
31 33 33 31 29 28 28 29 28 27 27 27 25 24 23 23 23 23 23 22 22 22 21 21 21 22 23 22 23 24 26 28 28 28 30 32 32 33 34 33 31 31 30 28 28 29 28 25 23 21 20 19 18 17 17 16 15 15 14 14 14 13 13 12 13 13 12 12 12 12 11 11 11 11 12 12 12 12 12 13 14 14 15 15 16 17 19
31 31 30 28 27 26 25 25 25 24 23 23 22 22 23 23 22 22 21 21 21 21 20 20 21 22 22 22 22 23 24 26 27 27 29 30 31 32 34 33 33 33 32 30 31 33 31 28 25 23 21 21 20 19 17 16 15 15 14 14 13 13 13 13 13 13 13 13 13 12 12 11 11 12 12 12 12 12 14 14 15 15 16 17 18 19 20
32 31 29 27 26 25 25 24 23 21 20 21 22 22 23 22 21 20 20 20 20 19 19 20 21 21 21 21 21 21 23 24 25 26 27 28 28 30 32 32 32 34 33 31 31 33 33 30 27 25 23 22 21 19 17 16 15 15 14 14 14 14 14 14 14 14 14 13 13 13 13 12 13 13 13 14 14 15 16 16 17 18 19 19 20 21 21
31 31 29 27 25 24 24 24 23 21 21 22 23 23 22 21 20 19 19 19 18 18 19 19 19 19 19 19 19 20 21 21 22 23 24 25 26 27 29 30 30 31 33 32 32 33 34 31 28 27 25 23 21 19 17 16 16 16 16 16 16 15 15 15 14 14 14 13 13 14 14 14 15 15 16 16 16 17 17 18 19 20 21 21 22 21 21
30 29 28 27 25 23 22 23 23 23 22 23 23 22 21 20 20 20 19 18 17 18 18 16 16 16 17 18 18 18 19 20 20 20 20 22 24 25 28 29 29 29 32 33 32 33 34 33 29 27 25 22 20 19 18 18 18 17 17 17 18 17 16 16 15 15 14 14 15 15 15 16 16 16 16 17 17 18 20 21 21 22 22 23 22 23 23
30 29 28 27 26 24 22 22 23 23 24 24 23 22 20 19 19 19 18 17 17 17 15 13 14 15 16 16 16 17 18 19 20 20 20 21 23 25 27 29 28 28 30 32 32 33 36 35 31 27 24 22 21 21 20 19 19 18 18 18 18 18 18 17 17 16 16 16 16 16 17 17 16 16 17 17 18 20 21 22 23 23 24 23 24 25 25
29 27 26 26 26 24 23 22 22 23 24 24 23 21 19 17 17 18 17 17 16 15 13 12 13 14 14 14 15 17 18 19 21 23 23 26 28 26 24 25 25 25 27 31 33 35 36 33 29 26 24 23 23 22 21 20 19 19 19 18 18 18 18 18 18 18 18 17 17 17 17 17 17 17 18 19 20 21 23 24 24 25 25 25 26 27 28
28 26 25 25 25 24 23 22 20 20 21 21 20 18 16 14 15 16 16 16 15 12 12 13 11 10 11 11 13 16 18 20 24 27 28 33 35 30 23 22 23 23 26 32 36 35 32 28 25 24 24 24 24 22 21 20 19 19 18 18 18 18 18 18 18 19 18 18 18 17 17 17 17 18 19 20 21 22 24 24 25 26 27 27 28 30 32
26 25 25 24 23 23 23 22 20 20 20 19 17 16 14 12 11 12 13 14 13 11 11 11 8 6 7 9 11 14 16 20 27 30 31 35 37 31 25 25 27 28 31 35 35 32 28 25 24 24 25 26 24 22 20 19 19 18 18 18 18 18 18 19 18 18 18 18 17 17 17 18 19 19 19 21 22 23 24 25 26 27 28 29 31 33 35
24 24 24 23 23 23 22 22 22 22 21 20 17 15 12 11 9 8 8 9 10 9 10 11 9 7 7 7 9 12 15 20 26 27 27 30 33 30 26 27 30 32 35 37 34 31 29 27 26 27 27 26 23 20 19 18 18 18 18 19 19 18 18 18 18 18 18 18 18 18 18 19 20 20 21 22 23 24 25 26 27 28 30 31 33 35 37
23 24 23 23 23 23 23 22 21 20 20 19 17 14 12 10 8 6 4 4 6 6 8 11 12 12 11 9 9 11 15 19 23 23 22 24 27 29 29 31 32 35 37 37 34 31 30 29 28 27 25 21 19 18 18 18 18 19 19 19 19 18 18 18 18 18 18 18 19 20 20 20 21 22 23 24 26 27 27 29 30 31 33 34 36 38 40
25 25 25 25 23 22 21 20 18 18 17 17 16 14 12 10 9 6 4 2 3 3 2 5 8 10 11 11 12 14 17 20 22 24 24 24 23 25 29 32 33 34 35 34 30 27 27 26 25 23 20 18 18 18 19 19 20 20 19 19 19 19 18 18 19 19 19 20 21 21 21 22 23 24 25 27 28 29 30 31 32 33 35 37 39 41 42
25 26 26 25 22 20 18 16 16 16 16 16 15 14 12 11 10 8 6 3 2 1 1 1 3 5 5 7 8 10 12 13 15 16 17 17 16 17 21 24 26 26 27 27 24 23 22 21 20 19 18 18 19 19 19 19 19 19 19 19 19 19 19 20 21 21 21 22 22 22 23 24 25 26 27 28 29 30 30 31 32 33 35 36 38 40 42
23 24 24 23 21 20 18 17 16 16 17 17 15 14 13 12 12 10 8 7 5 4 2 2 3 5 7 9 9 9 8 8 8 9 10 11 12 13 14 16 17 18 19 19 18 18 17 17 17 18 18 18 19 18 18 18 18 18 19 19 20 20 21 22 22 23 22 23 23 24 25 26 28 29 29 30 31 32 32 33 34 34 35 36 38 41 42
23 23 23 22 21 20 19 18 17 18 19 18 16 15 14 14 13 12 11 10 8 7 6 5 4 5 6 8 9 9 10 10 9 9 10 11 11 11 12 12 13 14 14 14 14 15 15 15 16 17 17 17 17 17 17 18 19 19 20 21 22 23 23 23 24 24 24 24 25 26 27 29 30 31 31 32 33 34 35 35 36 37 37 38 40 42 43
22 22 23 23 23 23 21 20 20 21 22 20 18 16 16 16 15 14 13 12 10 9 9 8 8 8 8 7 8 8 8 8 8 8 8 8 9 9 9 9 10 10 11 11 12 13 13 14 15 15 16 16 17 18 18 19 20 21 22 23 23 24 24 24 25 25 26 27 28 29 30 31 32 33 33 33 35 36 36 37 38 39 40 41 42 43 44
23 24 24 25 26 26 24 22 23 25 25 23 20 18 17 18 18 17 15 13 12 11 11 11 11 10 10 10 10 9 9 9 9 9 9 9 8 8 8 9 9 9 11 12 12 13 14 15 16 17 18 19 20 20 21 22 22 23 23 24 24 24 25 25 26 27 29 30 31 32 32 33 33 34 34 35 36 37 37 38 39 41 42 42 43 43 44
22 23 23 24 26 28 28 27 28 29 29 26 22 19 18 19 19 17 16 14 13 13 12 12 12 12 12 12 12 12 12 12 12 12 12 11 11 11 11 11 11 12 14 14 14 15 17 18 19 20 21 22 22 23 24 24 24 24 24 24 25 26 26 28 29 30 31 32 33 34 34 35 35 35 35 36 37 39 39 40 42 44 45 45 44 45 45
21 20 20 21 24 27 30 30 30 30 29 27 23 21 20 19 18 18 17 15 14 14 13 13 13 13 13 13 13 13 14 14 15 15 15 14 14 15 15 15 15 16 17 17 17 18 19 20 21 22 23 24 25 25 26 26 26 26 26 26 27 28 28 29 31 32 33 34 35 35 36 36 36 36 37 38 39 40 41 43 44 45 46 45 45 45 45
19 19 20 21 23 26 28 28 28 28 28 27 25 24 22 20 19 19 17 16 15 14 14 14 14 14 14 15 15 15 15 16 16 17 16 17 17 18 18 17 18 18 19 19 20 20 21 21 22 23 24 25 26 26 27 27 28 28 28 29 29 30 31 32 33 34 35 35 36 36 37 37 37 38 38 40 41 41 43 44 46 46 46 45 45 45 45
19 21 23 25 27 31 33 31 27 26 27 28 27 26 24 22 20 19 18 16 16 15 16 16 16 16 16 16 16 16 16 17 18 18 18 19 20 20 19 20 20 21 22 22 22 22 23 23 24 24 25 26 26 27 28 29 29 30 30 31 31 32 32 33 34 35 36 37 37 36 37 37 38 38 39 40 42 43 44 45 46 46 46 45 45 45 46
21 22 21 22 25 31 34 31 27 26 27 28 28 27 25 22 21 19 18 17 16 17 17 17 17 17 17 17 17 17 18 18 19 20 20 20 21 21 21 22 22 23 23 24 24 24 24 25 25 25 26 27 27 28 29 29 30 30 31 31 32 33 34 35 35 36 36 37 37 37 37 37 38 39 39 41 42 44 45 45 45 45 45 45 45 45 46
20 20 19 20 23 29 33 31 28 28 29 29 28 27 26 23 22 21 19 18 17 17 17 18 18 19 18 19 19 19 19 20 21 21 22 22 22 22 23 23 24 24 24 24 24 25 25 25 25 26 26 27 27 28 29 29 30 30 31 32 33 34 35 35 35 35 36 36 36 36 36 37 38 39 41 42 43 44 45 45 45 45 45 45 45 45 45
18 20 23 26 29 33 35 33 30 28 28 29 29 28 26 24 23 21 19 18 18 18 19 20 20 20 20 20 21 21 21 21 22 22 23 23 23 23 23 24 24 25 25 25 25 25 25 26 26 27 27 27 28 29 29 30 30 31 31 32 32 34 34 34 34 34 35 36 36 36 37 38 39 41 42 43 44 44 44 44 44 44 44 44 44 44 43
Wind_Direction
254 249 241 234 237 245 251 262 264 264 281 284 277 276 278 269 261 258 254 251 252 257 260 256 255 258 254 245 245 245 242 242 244 243 238 230 225 225 227 228 229 233 238 236 231 230 230 230 229 230 231 235 238 238 236 236 234 231 228 225 224 224 223 221 222 224 226 227 230 232 233 234 234 234 234 235 236 237 241 242 239 240 245 249 253 256 254
264 263 254 251 258 259 253 260 271 275 285 287 280 275 274 270 262 255 255 255 256 259 259 257 258 257 252 248 250 251 248 244 240 237 233 229 225 223 225 227 229 234 239 237 231 228 229 230 231 232 231 231 237 241 239 236 235 235 233 230 227 227 227 226 226 228 229 231 232 233 235 235 235 237 237 237 239 241 245 247 244 242 244 245 248 253 254
263 261 254 255 264 265 263 273 280 278 283 290 287 278 272 268 263 257 255 255 255 258 259 258 258 256 249 246 248 249 245 242 238 232 223 221 222 223 224 225 226 228 228 227 227 227 228 230 230 233 232 229 231 237 237 235 236 237 236 233 231 231 230 229 230 231 231 232 232 232 233 235 237 240 242 241 241 244 247 250 249 247 246 247 250 254 256
259 253 242 237 249 263 268 265 251 253 265 272 273 277 272 261 258 257 258 259 258 257 256 254 253 252 247 244 246 246 244 242 240 233 227 227 228 227 227 227 228 228 226 225 226 228 230 231 230 231 231 227 227 230 231 233 236 239 241 239 236 236 234 231 231 232 231 229 231 231 231 234 238 241 243 242 242 244 247 250 251 251 252 253 253 253 254
272 255 230 224 234 244 249 254 250 243 244 247 254 271 275 270 265 259 256 257 255 252 252 251 250 249 246 245 245 245 245 245 244 243 243 242 239 235 230 226 226 227 226 226 228 232 232 230 230 232 230 226 226 226 227 227 227 230 235 238 236 236 236 234 230 232 232 230 231 234 233 236 241 243 244 246 246 245 246 248 252 256 258 258 257 256 257
268 253 237 236 238 233 227 239 249 246 239 237 242 255 266 273 274 267 261 261 258 257 257 253 250 247 246 247 246 243 245 246 248 252 251 244 243 242 235 229 228 227 225 225 228 234 234 229 230 233 231 227 227 227 226 227 227 225 225 228 232 232 232 231 228 230 233 234 237 240 239 239 243 244 246 248 250 250 251 253 256 258 260 261 261 261 261
263 264 258 245 236 233 234 241 247 247 243 239 239 247 255 266 275 277 277 271 266 265 261 254 250 248 247 250 249 244 244 246 252 263 260 248 245 249 244 236 231 229 228 226 228 233 236 235 234 234 232 232 233 233 230 229 230 227 222 224 230 230 227 227 230 231 232 231 234 238 238 238 242 246 249 253 256 258 261 263 262 259 260 263 265 266 266
273 275 266 247 229 228 236 251 260 258 251 242 241 248 255 266 277 279 278 275 272 269 262 257 255 251 248 250 253 249 246 247 255 267 273 262 251 251 252 244 235 233 233 231 229 232 239 246 246 243 239 237 238 238 235 233 233 231 227 226 228 228 227 228 233 236 232 229 231 237 238 238 241 246 250 255 258 260 263 265 265 263 261 263 266 268 268
275 273 263 248 235 229 229 240 257 265 263 253 243 253 259 261 269 273 273 276 275 271 266 262 260 257 252 250 252 252 250 250 254 261 273 276 264 255 252 246 239 236 235 235 234 232 237 247 255 256 248 241 240 239 236 233 233 233 232 231 230 229 229 230 234 235 231 227 229 235 239 240 242 245 248 253 255 257 260 262 264 267 266 263 264 266 266
267 270 262 249 239 235 236 240 243 252 261 267 277 279 270 260 263 273 278 280 279 278 275 270 264 261 258 253 251 252 253 253 254 256 262 271 273 265 251 243 242 239 236 239 236 231 236 245 250 257 254 244 242 241 237 234 234 235 235 234 233 232 232 232 231 230 229 228 230 236 240 241 245 249 250 253 255 256 258 260 262 266 265 263 263 264 264
266 268 260 251 244 236 237 243 245 246 253 263 272 273 273 273 273 275 280 286 289 288 285 279 270 263 258 254 251 251 252 254 256 256 255 259 270 273 254 240 243 243 240 240 233 227 234 236 233 243 256 250 243 239 236 234 233 235 236 234 233 235 236 233 228 225 230 234 233 237 241 243 247 251 252 255 256 255 257 260 261 262 263 262 263 263 264
271 269 259 253 249 244 240 242 247 252 257 259 257 263 273 280 277 277 284 289 290 289 287 284 276 265 257 253 252 251 252 255 256 256 258 260 264 265 252 242 246 248 246 243 231 224 223 222 229 246 264 260 249 239 235 233 231 233 235 233 232 235 233 231 229 229 235 237 233 236 242 245 247 249 251 255 256 254 256 260 263 265 266 266 265 264 264
266 266 264 256 244 246 251 252 255 259 261 258 260 267 274 274 275 285 296 295 293 294 291 285 276 266 258 252 251 250 251 253 253 254 261 262 252 248 246 246 250 252 251 248 235 226 225 230 243 255 263 265 260 247 238 235 232 233 233 231 231 232 227 226 229 232 235 236 236 239 242 244 246 248 251 255 255 254 255 260 266 270 268 267 268 268 266
255 261 269 264 247 247 253 255 257 260 260 262 268 273 272 274 280 292 297 296 298 301 298 290 279 268 259 252 250 249 245 245 247 248 256 260 247 241 243 244 247 250 252 250 241 234 235 239 246 252 256 263 271 260 246 237 234 233 231 228 229 231 230 229 230 231 232 235 236 239 241 241 242 245 249 253 254 253 252 252 255 257 256 254 258 259 256
250 258 260 252 248 254 258 258 258 260 262 267 273 272 269 273 284 292 292 294 299 300 298 293 282 269 262 257 254 251 244 239 238 239 247 255 249 243 242 240 241 247 252 253 248 244 244 245 248 253 256 262 275 277 259 240 233 233 233 230 231 233 233 233 232 229 229 231 233 236 239 241 243 247 252 255 256 254 251 245 244 248 251 246 238 240 243
252 256 256 252 253 259 265 266 266 265 264 267 271 272 270 271 280 287 288 293 298 298 295 293 284 270 264 262 260 256 248 240 235 235 243 250 246 242 243 244 242 241 242 243 240 237 241 245 250 257 259 262 273 277 262 243 235 235 236 235 235 234 233 236 236 233 232 233 235 239 242 242 245 251 255 258 260 259 257 252 249 254 260 253 237 236 248
255 257 263 266 265 267 270 274 275 273 270 268 269 270 270 272 278 285 287 290 294 294 292 290 285 275 267 263 260 256 247 239 236 236 240 242 240 238 239 241 237 229 230 239 235 224 231 241 248 253 254 254 262 266 255 242 236 234 234 233 232 232 234 238 240 238 237 238 239 242 245 247 249 252 254 256 259 259 259 260 258 259 262 257 249 254 265
253 255 258 260 261 262 267 274 279 277 271 268 268 267 267 270 277 281 282 284 287 290 290 287 285 281 274 267 259 253 246 237 233 233 232 230 231 233 233 231 230 228 234 247 246 235 237 245 244 244 243 240 246 255 249 238 230 229 229 229 230 234 238 241 242 242 242 243 244 243 245 247 250 252 252 252 254 256 257 260 261 263 263 260 257 260 262
247 249 250 253 257 261 266 273 276 275 271 269 270 271 271 274 278 279 279 280 282 285 287 285 283 281 277 270 259 251 247 240 232 232 232 225 223 229 231 228 229 231 231 235 240 245 252 255 247 242 235 226 232 243 242 235 232 233 235 236 238 242 245 245 244 243 243 245 246 246 246 247 249 250 250 250 251 253 254 253 254 256 258 258 259 259 257
242 244 246 250 255 261 268 273 273 273 271 269 270 274 276 277 277 277 277 278 279 281 283 282 280 278 276 272 260 247 242 238 231 229 229 222 219 223 228 228 230 230 226 225 232 244 248 245 237 231 221 216 222 226 224 227 228 229 231 234 235 237 238 236 234 233 233 233 235 238 240 242 243 244 246 248 249 249 249 250 250 251 255 259 263 265 265
245 244 246 251 256 259 264 269 273 275 273 272 273 276 277 276 275 275 277 281 281 280 280 280 278 276 274 271 264 250 240 236 231 225 222 221 220 221 224 227 227 227 227 227 227 235 241 235 221 210 204 203 206 202 199 212 221 210 205 203 202 202 205 209 214 219 220 220 220 222 226 229 232 236 239 242 243 242 244 247 249 252 258 264 269 273 276
246 245 245 250 256 258 260 266 270 272 273 274 276 277 276 276 275 275 278 283 284 282 281 279 277 276 273 269 265 256 243 235 231 225 221 220 220 219 222 226 227 228 231 232 229 233 239 227 210 203 205 207 209 211 218 229 229 215 193 175 170 175 185 191 197 203 207 208 207 207 211 216 221 227 231 234 238 240 242 246 250 255 263 270 276 281 285
245 246 246 250 256 261 264 266 267 269 273 276 278 278 277 276 275 275 277 281 284 285 283 281 278 277 274 269 263 257 248 240 234 230 225 222 221 221 223 229 232 231 231 230 228 229 228 223 221 223 221 217 215 215 220 221 214 211 214 208 200 207 213 204 203 205 206 208 209 211 217 224 228 235 241 247 254 258 260 264 269 273 278 282 286 290 293
250 252 252 254 257 260 262 265 268 273 277 278 277 277 278 278 278 278 279 281 282 283 283 283 284 280 275 270 264 257 249 242 238 234 230 226 226 226 226 229 232 231 229 228 227 226 225 231 244 246 234 227 222 212 210 215 210 209 219 225 224 224 218 206 205 207 210 219 227 231 238 244 248 254 259 264 269 272 275 277 280 281 284 286 288 291 295
254 257 256 257 258 259 262 266 270 274 276 276 274 272 274 278 280 280 281 282 282 283 284 286 286 282 276 271 266 258 249 241 237 236 233 229 228 229 229 229 229 230 229 227 228 230 231 233 238 237 227 223 218 207 205 214 217 218 224 228 227 226 221 217 223 230 232 237 241 243 246 250 254 258 261 265 269 271 272 275 278 280 283 286 289 293 296
252 258 261 261 262 264 267 271 273 275 275 274 273 273 273 275 277 279 279 279 280 283 286 286 283 278 273 271 267 260 251 243 238 237 235 232 229 229 229 229 228 229 228 225 225 232 234 227 223 221 218 214 211 207 208 214 218 221 226 228 229 232 233 236 243 247 248 249 251 252 254 257 259 262 264 266 269 270 271 272 275 278 281 284 288 291 293
251 257 262 264 266 268 270 273 275 276 276 275 276 276 276 276 277 277 277 277 279 282 285 285 283 279 275 271 267 261 254 247 241 237 234 231 228 227 228 229 228 229 228 223 224 230 228 218 212 215 218 218 217 219 221 223 224 227 230 232 236 240 243 246 249 251 254 257 259 261 263 264 265 266 267 267 267 267 269 270 272 275 278 281 284 287 289
252 256 259 262 265 267 267 268 271 275 277 277 277 278 278 278 278 278 277 278 279 281 283 284 283 281 278 272 266 260 253 246 241 238 235 231 227 225 227 228 229 230 228 225 225 225 219 211 209 212 216 220 225 227 228 227 228 230 230 232 236 239 242 247 250 252 255 258 260 261 262 263 263 263 262 263 263 264 265 268 272 275 277 280 281 282 284
251 253 256 260 265 266 266 267 270 274 277 278 278 279 280 280 280 280 279 278 279 281 282 282 280 280 278 273 267 262 254 246 240 237 237 234 228 225 225 225 226 228 226 223 222 219 212 207 210 213 217 221 224 225 226 226 226 228 228 230 234 238 241 245 250 253 254 254 253 254 255 256 257 257 258 261 264 266 268 270 273 275 278 281 281 282 284
248 251 255 260 264 267 267 266 266 269 274 277 278 279 281 281 282 281 280 279 280 281 282 282 281 279 275 270 267 263 256 246 238 235 236 235 230 226 225 224 224 224 223 223 223 220 216 214 217 219 221 223 221 220 223 225 227 229 232 234 237 240 241 244 246 248 249 249 249 250 250 250 252 255 258 261 262 263 264 266 269 272 275 278 282 285 288
248 251 253 256 260 263 263 262 263 267 272 275 276 278 281 283 283 282 280 281 282 283 284 283 280 274 269 265 262 258 252 245 238 234 234 234 231 227 226 225 224 224 226 227 225 222 219 219 220 221 220 219 218 219 222 226 230 234 236 238 241 243 244 243 243 243 243 243 244 246 246 247 248 251 253 255 257 259 262 265 269 273 276 279 284 287 288
248 250 252 254 256 257 258 260 262 265 268 271 274 278 282 284 285 284 283 284 285 286 286 282 273 265 262 261 257 252 248 244 241 238 235 233 230 226 225 225 224 225 226 227 224 220 217 216 216 216 214 213 216 220 224 228 233 236 237 238 240 240 241 241 241 241 241 240 241 243 244 246 248 250 252 256 260 264 269 273 276 279 282 286 289 289 286
247 249 251 255 258 260 262 266 268 268 266 267 272 276 280 283 286 287 287 288 289 289 285 275 263 257 255 255 253 249 245 241 239 237 234 233 231 225 222 222 222 221 223 226 225 220 216 214 212 212 213 215 220 226 228 230 232 233 235 237 237 237 237 239 240 241 241 240 241 243 245 247 250 253 257 262 267 271 275 278 280 284 289 291 291 288 286
246 248 252 257 260 262 262 265 269 270 268 268 270 273 276 282 288 292 294 296 296 292 280 265 256 253 252 252 250 245 241 236 231 227 224 224 225 222 219 218 216 215 222 229 226 217 211 210 210 211 216 222 226 227 228 229 230 230 231 232 233 232 231 233 235 237 239 240 242 244 247 250 254 259 264 269 274 277 279 282 286 290 292 292 289 287 287
246 249 253 257 258 257 257 261 266 268 267 266 266 268 272 279 289 296 300 302 300 291 272 258 255 252 249 250 247 241 237 231 223 217 209 204 207 214 220 218 214 214 221 225 219 209 203 204 206 210 216 222 224 224 225 226 225 224 223 224 226 226 227 229 232 234 238 241 243 247 251 255 261 266 272 277 280 282 284 287 291 292 291 289 288 287 287
248 248 250 252 253 254 258 263 265 262 260 259 258 261 268 278 290 300 305 306 302 283 259 253 254 244 238 241 239 235 232 223 212 206 201 199 203 210 216 215 215 219 219 214 207 201 199 202 206 210 215 218 219 219 219 217 216 217 218 220 223 224 226 228 231 234 239 243 246 251 256 261 266 271 276 281 284 286 287 289 290 289 288 288 288 288 288
248 247 246 247 250 253 258 261 259 256 256 255 252 253 261 272 285 300 308 311 305 279 248 242 244 233 234 245 241 232 224 214 206 203 202 202 206 211 212 209 211 215 213 207 203 202 204 208 213 214 213 212 211 210 209 210 213 217 220 223 225 226 228 230 232 236 240 245 250 255 261 266 271 275 280 284 286 287 288 290 289 288 287 288 288 288 290
246 245 244 245 249 255 259 261 258 252 249 248 246 247 253 260 271 289 309 318 312 283 246 230 225 219 223 239 242 232 222 214 212 213 213 212 214 220 223 217 214 214 214 213 211 211 212 215 216 212 207 203 200 201 205 212 217 221 223 224 226 229 231 234 237 240 245 250 255 259 265 270 275 279 283 287 289 290 292 293 292 290 290 290 290 290 292
241 243 244 246 252 258 263 262 253 241 237 239 242 242 242 244 251 267 295 327 332 303 254 235 233 231 228 226 224 220 216 214 217 225 232 233 232 233 232 225 220 219 219 216 212 207 206 206 203 199 194 193 195 202 209 215 219 222 223 226 229 232 235 239 243 247 252 258 263 266 271 276 282 287 291 295 296 298 299 299 297 296 296 296 295 295 295
243 245 247 248 252 258 261 254 238 227 229 235 236 234 232 229 230 241 262 305 351 349 303 240 234 236 237 235 230 226 226 228 231 236 243 246 244 238 230 224 219 218 216 212 204 195 191 190 188 185 186 191 199 206 212 216 219 222 226 229 232 236 241 247 252 256 260 264 268 273 278 284 288 292 295 297 297 297 297 297 296 296 295 295 294 293 293
245 247 248 248 248 249 247 235 223 222 229 232 228 225 224 221 219 224 236 248 266 324 14 143 172 180 187 196 205 211 218 224 227 228 230 230 226 220 217 216 213 211 208 203 194 184 178 178 180 183 190 197 204 209 213 218 223 227 232 236 240 244 249 254 259 262 266 270 274 278 284 288 291 292 293 293 293 293 293 292 292 291 291 291 290 291 291
244 245 246 244 239 234 230 226 223 224 224 222 219 219 220 218 217 221 227 231 233 233 219 184 156 141 137 138 141 144 144 147 152 157 161 164 168 173 180 185 188 188 189 188 184 179 177 181 186 192 198 203 208 214 220 226 231 236 241 246 251 254 256 260 263 266 270 274 279 282 286 288 290 291 292 293 294 294 294 295 295 294 294 294 295 295 296
242 241 240 237 231 227 224 222 219 217 214 211 211 213 214 215 216 218 222 226 228 226 220 212 197 177 162 152 146 142 138 136 137 141 143 145 149 154 159 165 170 173 176 180 183 185 188 193 198 203 207 212 218 224 230 237 242 246 250 254 257 259 261 263 266 268 272 276 279 282 285 288 289 291 292 293 294 296 297 299 299 299 300 300 300 301 302
241 237 233 230 227 225 221 215 212 212 211 208 207 207 208 210 212 216 221 225 226 224 221 216 211 205 199 187 175 168 165 162 163 166 167 166 165 166 171 177 182 186 192 196 199 201 205 210 214 218 222 226 231 236 241 245 249 253 255 257 259 261 263 265 268 271 275 278 281 284 287 289 291 292 292 293 295 297 299 300 300 301 301 302 303 303 303
245 240 235 230 226 222 216 210 209 210 210 207 206 205 205 206 210 214 218 223 225 223 221 219 216 213 211 207 200 195 194 193 195 197 199 196 192 193 198 201 204 210 217 220 220 222 225 228 230 232 234 237 240 243 246 250 253 256 258 261 263 265 267 269 272 275 278 282 285 289 291 292 293 293 294 296 297 298 300 301 301 301 302 304 304 305 305
244 240 236 232 227 220 212 205 205 207 207 206 204 203 204 206 209 212 216 221 224 224 223 222 221 219 219 218 215 211 210 210 212 214 215 215 215 216 218 219 221 226 230 232 233 234 236 237 239 241 242 244 246 249 251 254 257 260 263 266 269 270 272 274 277 280 283 286 289 292 293 294 294 295 297 299 300 301 302 303 303 303 305 306 307 306 307
238 234 232 231 229 221 211 203 201 203 204 203 201 203 207 209 210 211 214 219 224 226 226 226 225 224 225 226 226 224 223 223 225 226 226 227 227 228 229 229 231 233 236 238 239 241 242 244 246 247 248 250 252 254 256 258 261 264 267 269 271 273 276 279 281 284 286 289 291 293 294 295 295 297 299 299 300 301 302 303 303 304 305 306 306 306 306
234 227 221 217 215 214 211 207 204 202 201 200 201 205 208 210 210 210 213 217 221 224 227 228 228 228 229 229 230 231 231 232 234 236 236 236 238 238 239 240 242 244 245 247 248 249 251 252 253 254 255 257 258 260 262 264 266 268 270 272 274 276 279 281 284 286 287 289 291 293 295 295 296 298 299 299 300 301 302 302 302 303 303 304 304 305 305
231 227 220 212 206 204 204 204 204 202 201 201 204 206 208 209 210 212 214 216 218 222 225 227 228 230 231 232 234 236 237 238 240 242 242 243 245 246 246 247 249 250 252 253 255 257 258 259 260 261 262 263 264 266 267 268 269 271 273 275 276 278 280 282 285 287 289 290 291 293 295 296 297 297 298 298 299 300 300 300 301 301 302 303 304 304 305
229 226 224 223 217 207 201 199 200 202 203 203 204 205 206 208 211 213 215 217 219 222 225 227 229 231 234 235 238 240 242 244 246 248 248 248 250 250 250 251 252 253 254 256 257 258 259 261 262 263 264 265 267 268 269 270 272 274 275 277 279 280 281 283 285 287 289 291 292 292 294 295 296 296 297 297 298 298 298 299 299 300 301 303 304 305 306
228 223 219 220 216 206 199 197 201 205 205 204 204 204 205 207 211 214 216 218 221 224 227 230 231 233 236 238 241 242 244 246 249 250 251 251 252 252 253 253 254 255 256 257 258 259 260 262 263 264 265 267 268 270 271 273 274 276 277 279 281 282 282 283 286 288 289 290 291 292 293 294 295 295 296 297 297 297 298 299 300 301 302 303 304 305 306
227 221 212 205 200 197 196 197 202 207 208 208 208 207 207 208 212 214 217 220 223 226 229 231 233 235 238 241 244 245 246 248 250 252 253 253 253 253 254 254 255 256 257 259 259 260 262 263 264 266 267 269 270 271 273 274 276 277 278 279 281 283 284 285 287 289 290 291 292 293 294 295 295 296 297 297 298 298 299 300 301 302 302 303 303 305 306
Height
5838 5838 5839 5840 5840 5841 5841 5842 5842 5842 5841 5839 5838 5839 5839 5839 5840 5840 5839 5841 5842 5844 5845 5846 5845 5845 5846 5846 5846 5847 5848 5849 5850 5852 5853 5854 5854 5854 5855 5857 5859 5861 5864 5866 5868 5871 5874 5876 5878 5880 5883 5885 5886 5887 5890 5893 5895 5897 5899 5902 5904 5905 5907 5908 5910 5911 5912 5914 5916 5917 5918 5919 5919 5920 5921 5921 5922 5922 5923 5924 5926 5927 5928 5928 5928 5929 5930
5834 5835 5836 5837 5837 5838 5839 5839 5840 5840 5839 5837 5836 5836 5836 5836 5838 5837 5837 5838 5840 5841 5841 5842 5842 5842 5844 5845 5845 5845 5846 5848 5848 5848 5849 5851 5851 5851 5851 5852 5853 5855 5859 5862 5864 5866 5870 5873 5875 5877 5880 5883 5884 5886 5888 5890 5892 5894 5897 5899 5901 5903 5905 5906 5908 5909 5911 5912 5914 5915 5916 5916 5917 5917 5918 5919 5920 5920 5921 5921 5923 5925 5925 5925 5925 5926 5926
5832 5832 5834 5835 5837 5837 5837 5837 5838 5837 5836 5835 5834 5834 5834 5834 5834 5835 5835 5836 5838 5838 5838 5839 5839 5840 5842 5843 5843 5844 5844 5845 5846 5846 5845 5846 5848 5849 5849 5850 5851 5853 5855 5857 5859 5862 5865 5869 5871 5874 5876 5880 5882 5884 5886 5889 5891 5893 5894 5897 5899 5901 5903 5904 5905 5907 5909 5910 5911 5913 5914 5914 5915 5915 5916 5917 5918 5918 5919 5919 5921 5923 5922 5922 5923 5923 5923
5829 5829 5830 5832 5833 5833 5834 5834 5835 5835 5834 5833 5833 5832 5831 5831 5831 5832 5833 5833 5835 5836 5835 5836 5837 5839 5840 5840 5840 5841 5842 5843 5844 5844 5844 5845 5846 5847 5847 5849 5850 5851 5853 5854 5856 5858 5861 5864 5867 5870 5872 5875 5878 5881 5884 5887 5890 5892 5893 5895 5897 5898 5899 5900 5902 5904 5905 5907 5908 5910 5911 5912 5912 5913 5914 5915 5915 5916 5916 5917 5919 5920 5920 5919 5920 5920 5920
5826 5826 5827 5827 5827 5828 5831 5831 5831 5833 5834 5833 5832 5830 5829 5829 5829 5829 5830 5831 5832 5832 5833 5834 5835 5836 5837 5838 5839 5840 5840 5841 5842 5843 5844 5845 5845 5844 5844 5846 5848 5849 5850 5852 5853 5855 5857 5860 5864 5867 5869 5871 5874 5876 5879 5882 5885 5886 5889 5892 5894 5895 5895 5897 5899 5902 5904 5905 5906 5906 5908 5909 5910 5910 5911 5911 5911 5912 5912 5914 5916 5917 5917 5917 5917 5918 5918
5823 5824 5824 5823 5824 5826 5828 5828 5828 5831 5831 5830 5830 5829 5828 5827 5826 5826 5827 5828 5829 5831 5831 5831 5832 5833 5835 5836 5837 5838 5839 5840 5841 5842 5843 5844 5844 5843 5843 5844 5845 5846 5847 5849 5851 5853 5855 5858 5861 5863 5865 5868 5870 5872 5875 5877 5879 5880 5883 5886 5888 5890 5892 5894 5896 5899 5904 5906 5906 5905 5905 5906 5906 5906 5907 5907 5907 5908 5909 5911 5914 5914 5914 5914 5915 5915 5916
5821 5822 5821 5821 5823 5825 5825 5825 5825 5826 5826 5825 5826 5827 5826 5825 5824 5825 5826 5826 5826 5828 5829 5828 5828 5830 5832 5834 5835 5836 5837 5838 5839 5840 5841 5842 5842 5843 5843 5843 5844 5845 5845 5846 5848 5851 5853 5855 5857 5860 5862 5864 5866 5868 5870 5873 5874 5875 5878 5881 5883 5885 5889 5891 5893 5896 5899 5902 5902 5902 5901 5902 5902 5903 5904 5904 5905 5905 5907 5908 5910 5910 5910 5911 5912 5912 5912
5818 5819 5819 5820 5821 5822 5822 5822 5821 5820 5820 5822 5824 5824 5824 5825 5824 5823 5824 5824 5823 5824 5825 5824 5825 5827 5829 5832 5832 5833 5835 5837 5837 5838 5839 5839 5840 5841 5842 5842 5843 5843 5844 5845 5846 5848 5850 5852 5854 5856 5858 5860 5862 5863 5866 5868 5870 5872 5875 5876 5878 5881 5884 5887 5890 5892 5893 5895 5896 5897 5898 5898 5898 5900 5901 5901 5902 5902 5903 5904 5904 5905 5906 5907 5909 5910 5908
5816 5816 5816 5817 5818 5819 5820 5820 5818 5816 5816 5818 5821 5822 5821 5822 5821 5821 5821 5822 5821 5821 5821 5822 5822 5823 5826 5829 5830 5830 5832 5834 5835 5836 5837 5837 5837 5839 5840 5840 5841 5841 5842 5843 5844 5846 5848 5849 5851 5853 5854 5856 5857 5858 5860 5862 5865 5869 5871 5871 5873 5876 5880 5883 5885 5885 5886 5889 5892 5893 5894 5895 5895 5896 5897 5898 5898 5899 5899 5900 5900 5901 5902 5904 5905 5906 5905
5813 5813 5814 5814 5815 5816 5817 5817 5816 5815 5814 5816 5819 5818 5816 5818 5819 5818 5819 5820 5819 5819 5819 5820 5820 5821 5822 5825 5826 5826 5828 5831 5832 5834 5835 5836 5836 5837 5837 5838 5838 5839 5840 5841 5843 5845 5846 5846 5847 5848 5849 5850 5851 5853 5855 5857 5860 5863 5866 5867 5870 5874 5878 5880 5880 5880 5881 5884 5887 5889 5890 5891 5891 5893 5894 5895 5896 5897 5896 5896 5897 5898 5898 5899 5900 5900 5901
5810 5811 5811 5812 5813 5813 5813 5813 5812 5811 5813 5816 5817 5814 5813 5815 5816 5816 5817 5818 5817 5817 5817 5817 5818 5819 5820 5821 5822 5823 5825 5827 5829 5831 5833 5834 5835 5835 5836 5835 5836 5837 5837 5838 5841 5843 5843 5840 5839 5841 5842 5844 5846 5847 5849 5851 5854 5858 5860 5863 5867 5871 5873 5874 5874 5875 5877 5879 5881 5884 5886 5887 5888 5889 5891 5892 5893 5894 5893 5893 5894 5894 5895 5896 5896 5895 5896
5808 5809 5809 5810 5811 5810 5810 5810 5808 5809 5812 5814 5813 5812 5812 5812 5812 5814 5816 5816 5815 5815 5814 5814 5814 5815 5816 5817 5819 5821 5823 5825 5827 5828 5829 5831 5833 5833 5834 5834 5834 5834 5835 5836 5839 5840 5839 5836 5835 5836 5839 5840 5842 5843 5844 5845 5849 5852 5856 5860 5864 5865 5866 5868 5870 5872 5874 5874 5877 5880 5882 5883 5884 5886 5887 5888 5889 5889 5889 5889 5890 5891 5892 5893 5892 5891 5891
5806 5807 5807 5808 5808 5806 5807 5807 5806 5807 5809 5810 5810 5810 5810 5809 5810 5812 5814 5813 5813 5812 5812 5811 5811 5811 5812 5814 5815 5818 5821 5823 5824 5825 5826 5827 5829 5830 5831 5831 5832 5832 5832 5833 5835 5837 5837 5836 5835 5835 5836 5838 5839 5840 5840 5841 5844 5847 5851 5855 5859 5860 5861 5864 5868 5870 5871 5872 5875 5877 5878 5880 5881 5882 5883 5884 5884 5884 5885 5886 5887 5888 5888 5888 5887 5887 5887
5804 5804 5804 5805 5804 5803 5803 5804 5804 5805 5806 5806 5807 5808 5807 5806 5809 5811 5811 5811 5810 5810 5809 5809 5809 5808 5809 5810 5812 5814 5817 5819 5821 5823 5824 5825 5826 5828 5828 5828 5829 5829 5829 5830 5831 5833 5834 5835 5834 5833 5834 5835 5836 5837 5837 5838 5841 5843 5845 5849 5853 5855 5857 5861 5864 5865 5866 5869 5872 5873 5874 5876 5877 5878 5879 5879 5879 5880 5881 5883 5883 5882 5881 5881 5881 5881 5881
5802 5802 5802 5802 5801 5799 5800 5801 5801 5802 5803 5803 5804 5804 5804 5806 5808 5809 5809 5809 5809 5808 5808 5807 5807 5807 5807 5808 5809 5811 5813 5815 5817 5820 5822 5823 5824 5826 5826 5826 5826 5827 5828 5829 5829 5829 5830 5831 5831 5831 5832 5833 5833 5834 5834 5835 5837 5839 5841 5844 5847 5850 5852 5856 5858 5859 5860 5863 5867 5868 5870 5871 5873 5874 5874 5874 5874 5876 5877 5878 5877 5876 5876 5876 5875 5874 5875
5799 5799 5799 5799 5798 5797 5797 5798 5799 5800 5801 5802 5802 5801 5802 5805 5808 5808 5807 5807 5806 5806 5806 5805 5805 5805 5805 5806 5807 5808 5809 5811 5813 5816 5818 5820 5822 5824 5824 5824 5825 5826 5826 5827 5827 5827 5827 5829 5829 5830 5831 5830 5830 5831 5831 5832 5834 5836 5838 5841 5843 5846 5848 5851 5852 5854 5856 5859 5861 5863 5866 5867 5868 5869 5870 5870 5871 5872 5873 5873 5872 5871 5872 5873 5871 5869 5869
5796 5797 5796 5796 5796 5796 5795 5795 5796 5798 5799 5799 5800 5799 5799 5802 5806 5805 5804 5804 5804 5804 5804 5803 5803 5803 5804 5805 5805 5806 5807 5809 5811 5813 5815 5817 5819 5820 5821 5822 5823 5824 5825 5825 5824 5824 5825 5827 5828 5829 5829 5827 5827 5827 5828 5829 5832 5834 5835 5838 5840 5842 5845 5848 5849 5851 5853 5854 5857 5859 5861 5862 5863 5864 5866 5866 5867 5868 5869 5869 5868 5867 5867 5868 5868 5866 5866
5793 5794 5794 5794 5794 5793 5792 5793 5794 5795 5796 5797 5797 5796 5796 5800 5803 5803 5801 5801 5801 5801 5801 5801 5801 5801 5802 5803 5803 5803 5805 5806 5808 5810 5812 5814 5815 5816 5818 5819 5820 5821 5822 5823 5822 5822 5823 5825 5826 5826 5827 5826 5826 5826 5827 5827 5829 5830 5832 5834 5836 5839 5842 5844 5845 5846 5848 5850 5852 5854 5856 5856 5858 5859 5861 5862 5862 5863 5864 5864 5864 5863 5862 5862 5863 5863 5863
5790 5791 5791 5790 5790 5790 5790 5791 5792 5793 5794 5795 5794 5793 5794 5797 5800 5800 5798 5798 5799 5799 5799 5799 5799 5799 5800 5801 5801 5802 5802 5804 5806 5807 5809 5811 5812 5813 5815 5817 5818 5819 5820 5820 5820 5821 5821 5822 5823 5824 5825 5825 5825 5826 5826 5825 5826 5828 5829 5831 5834 5836 5838 5840 5841 5842 5844 5845 5847 5849 5850 5852 5852 5853 5855 5856 5857 5858 5859 5860 5860 5859 5859 5859 5859 5859 5859
5787 5788 5788 5787 5787 5787 5788 5789 5789 5790 5791 5792 5792 5791 5791 5793 5795 5796 5795 5795 5796 5797 5797 5797 5797 5797 5798 5799 5799 5800 5800 5802 5803 5804 5806 5808 5809 5810 5812 5814 5815 5817 5817 5818 5819 5819 5820 5820 5822 5822 5822 5824 5824 5824 5825 5825 5824 5825 5826 5828 5830 5832 5834 5836 5837 5838 5840 5841 5842 5843 5845 5846 5847 5848 5849 5851 5852 5853 5854 5855 5856 5856 5856 5856 5856 5856 5856
5783 5784 5785 5784 5784 5785 5786 5786 5787 5786 5787 5788 5789 5789 5789 5789 5790 5791 5792 5792 5793 5794 5795 5795 5795 5796 5796 5796 5797 5798 5799 5799 5800 5801 5803 5804 5806 5807 5809 5810 5812 5814 5815 5816 5817 5817 5817 5819 5820 5819 5820 5822 5823 5823 5823 5824 5824 5824 5825 5826 5827 5829 5831 5833 5834 5836 5837 5838 5839 5840 5841 5842 5843 5844 5845 5846 5847 5849 5850 5851 5852 5852 5853 5853 5853 5853 5853
5778 5779 5781 5781 5781 5783 5785 5785 5785 5784 5784 5785 5786 5786 5786 5786 5786 5787 5789 5789 5790 5791 5793 5793 5793 5793 5794 5794 5794 5795 5796 5797 5798 5799 5800 5801 5803 5805 5806 5808 5810 5812 5814 5815 5815 5815 5815 5817 5818 5818 5820 5821 5822 5822 5823 5823 5823 5824 5825 5825 5826 5828 5830 5831 5833 5834 5835 5836 5837 5838 5839 5839 5840 5841 5843 5844 5845 5846 5847 5848 5848 5849 5849 5849 5850 5850 5850
5774 5776 5779 5779 5779 5780 5782 5782 5782 5781 5782 5783 5783 5783 5783 5783 5783 5784 5785 5786 5786 5787 5789 5790 5790 5791 5790 5790 5791 5792 5793 5794 5795 5796 5797 5799 5800 5802 5804 5805 5807 5809 5811 5812 5814 5814 5815 5815 5816 5818 5820 5820 5821 5822 5823 5822 5822 5823 5824 5825 5826 5827 5828 5830 5831 5832 5833 5834 5835 5836 5837 5838 5839 5839 5840 5841 5842 5843 5844 5845 5846 5846 5846 5846 5847 5847 5847
5773 5775 5777 5777 5777 5778 5779 5779 5778 5779 5779 5780 5780 5780 5780 5780 5780 5781 5782 5782 5782 5783 5785 5786 5786 5787 5787 5786 5787 5788 5790 5791 5791 5792 5794 5796 5797 5799 5800 5802 5803 5805 5808 5810 5811 5813 5814 5814 5815 5816 5818 5819 5820 5821 5821 5821 5821 5822 5823 5824 5826 5826 5827 5828 5829 5830 5831 5832 5833 5834 5835 5836 5837 5838 5839 5839 5840 5841 5842 5843 5843 5843 5844 5844 5844 5844 5844
5771 5772 5773 5773 5773 5775 5776 5776 5776 5776 5777 5777 5778 5778 5778 5778 5777 5778 5778 5778 5778 5779 5781 5782 5783 5782 5782 5782 5783 5784 5785 5786 5787 5788 5789 5792 5794 5795 5797 5799 5801 5803 5805 5807 5808 5810 5812 5812 5813 5814 5816 5817 5818 5819 5819 5820 5821 5822 5823 5824 5825 5825 5826 5827 5828 5829 5829 5830 5831 5832 5833 5834 5835 5836 5837 5838 5838 5839 5840 5840 5840 5841 5841 5841 5842 5842 5841
5769 5769 5769 5769 5770 5772 5773 5774 5774 5773 5774 5774 5774 5775 5775 5775 5775 5775 5775 5775 5775 5775 5776 5778 5778 5778 5778 5778 5779 5780 5781 5782 5783 5784 5786 5789 5791 5792 5794 5796 5798 5800 5802 5804 5806 5808 5809 5810 5811 5813 5814 5815 5816 5817 5818 5819 5820 5821 5822 5823 5824 5824 5825 5826 5827 5827 5828 5829 5829 5830 5831 5832 5833 5833 5834 5835 5836 5836 5837 5837 5838 5838 5839 5839 5839 5839 5839
5766 5766 5765 5765 5766 5769 5771 5771 5770 5771 5771 5771 5771 5772 5772 5772 5772 5772 5772 5772 5772 5772 5772 5773 5773 5774 5774 5775 5775 5776 5777 5778 5779 5781 5782 5784 5787 5789 5791 5793 5795 5797 5799 5801 5803 5804 5806 5808 5810 5811 5812 5813 5814 5815 5816 5817 5818 5820 5821 5822 5822 5823 5824 5825 5825 5826 5826 5827 5827 5828 5829 5830 5830 5831 5832 5832 5833 5833 5834 5834 5835 5835 5836 5837 5837 5837 5836
5762 5762 5762 5762 5764 5766 5767 5766 5767 5768 5768 5768 5768 5768 5768 5769 5769 5769 5769 5769 5769 5769 5769 5769 5769 5769 5770 5770 5771 5771 5772 5773 5775 5776 5778 5780 5783 5785 5788 5790 5793 5795 5797 5799 5800 5801 5803 5806 5808 5808 5809 5811 5812 5813 5814 5815 5816 5818 5819 5820 5820 5821 5822 5823 5823 5824 5824 5825 5826 5826 5827 5827 5828 5829 5829 5830 5830 5831 5831 5831 5832 5832 5833 5834 5834 5834 5834
5757 5757 5758 5760 5762 5762 5762 5763 5764 5765 5765 5765 5765 5765 5765 5765 5765 5765 5765 5766 5765 5765 5766 5766 5766 5765 5765 5765 5766 5767 5768 5769 5771 5773 5774 5776 5779 5782 5784 5787 5790 5792 5794 5796 5797 5797 5799 5802 5804 5805 5807 5809 5810 5811 5812 5813 5814 5815 5816 5817 5818 5819 5820 5821 5821 5822 5823 5823 5824 5824 5825 5825 5826 5826 5827 5827 5828 5828 5828 5828 5829 5829 5830 5830 5831 5831 5830
5753 5754 5755 5757 5758 5759 5759 5760 5761 5762 5762 5762 5762 5762 5761 5762 5762 5762 5762 5762 5762 5762 5762 5762 5762 5762 5762 5762 5762 5763 5764 5765 5768 5769 5771 5772 5775 5778 5781 5784 5786 5788 5790 5792 5793 5794 5796 5799 5801 5803 5805 5807 5808 5809 5810 5811 5812 5813 5814 5815 5816 5817 5818 5819 5819 5820 5821 5821 5821 5822 5823 5823 5823 5824 5824 5825 5825 5825 5825 5825 5826 5827 5827 5827 5827 5827 5827
5749 5751 5753 5755 5755 5755 5756 5756 5758 5759 5759 5759 5759 5758 5758 5758 5759 5759 5758 5758 5758 5758 5759 5758 5758 5758 5758 5759 5759 5760 5761 5762 5764 5766 5767 5769 5772 5774 5777 5779 5782 5784 5786 5788 5790 5791 5793 5796 5798 5801 5803 5804 5806 5807 5808 5809 5810 5811 5812 5813 5814 5815 5816 5817 5817 5818 5819 5819 5820 5820 5821 5821 5821 5822 5822 5822 5823 5823 5823 5823 5823 5824 5824 5824 5824 5824 5824
5745 5747 5750 5751 5752 5752 5753 5753 5754 5756 5757 5756 5756 5756 5756 5756 5756 5755 5755 5755 5755 5755 5755 5754 5755 5755 5755 5756 5757 5757 5758 5760 5762 5763 5764 5765 5768 5770 5773 5775 5778 5780 5782 5785 5787 5788 5790 5792 5795 5798 5800 5802 5804 5805 5805 5807 5808 5809 5810 5811 5812 5813 5814 5815 5815 5816 5816 5817 5817 5818 5818 5819 5819 5820 5820 5820 5820 5820 5820 5819 5820 5820 5820 5820 5820 5820 5819
5742 5744 5746 5747 5748 5750 5751 5751 5752 5753 5753 5753 5753 5753 5753 5753 5753 5752 5752 5752 5751 5751 5751 5751 5751 5752 5752 5753 5754 5755 5756 5758 5759 5760 5761 5762 5764 5766 5769 5771 5774 5776 5778 5780 5783 5785 5787 5789 5792 5795 5797 5799 5801 5802 5803 5804 5805 5807 5808 5809 5810 5811 5812 5812 5812 5813 5814 5814 5815 5816 5816 5816 5817 5817 5817 5817 5817 5816 5816 5815 5815 5815 5816 5816 5815 5814 5813
5740 5742 5743 5744 5745 5748 5749 5749 5750 5750 5751 5751 5751 5751 5751 5750 5750 5749 5749 5749 5748 5748 5748 5749 5749 5750 5750 5751 5752 5753 5754 5756 5757 5758 5759 5760 5761 5762 5765 5767 5770 5774 5776 5778 5779 5781 5784 5786 5789 5792 5794 5796 5798 5799 5800 5802 5803 5804 5805 5806 5808 5809 5809 5810 5810 5811 5811 5812 5813 5813 5813 5814 5814 5814 5814 5814 5814 5813 5812 5811 5811 5811 5812 5811 5810 5809 5808
5737 5740 5741 5742 5743 5744 5746 5747 5748 5749 5748 5749 5749 5749 5749 5749 5748 5747 5746 5746 5746 5746 5746 5746 5747 5748 5748 5749 5750 5751 5752 5753 5754 5754 5756 5758 5759 5760 5763 5767 5770 5772 5774 5776 5777 5778 5781 5784 5787 5789 5791 5793 5795 5796 5798 5799 5800 5802 5803 5804 5805 5806 5807 5807 5808 5808 5809 5809 5810 5811 5811 5811 5811 5811 5811 5810 5810 5809 5808 5807 5807 5807 5807 5807 5806 5805 5803
5735 5737 5738 5739 5740 5741 5743 5744 5746 5746 5746 5747 5747 5748 5747 5747 5746 5745 5745 5744 5744 5743 5744 5744 5745 5746 5747 5747 5748 5749 5751 5752 5752 5752 5753 5755 5756 5758 5762 5766 5768 5770 5772 5774 5775 5776 5779 5782 5784 5786 5788 5790 5792 5794 5795 5797 5798 5799 5801 5802 5803 5803 5804 5805 5805 5806 5807 5807 5808 5808 5808 5808 5808 5808 5807 5807 5806 5805 5804 5804 5804 5803 5803 5802 5802 5800 5798
5733 5735 5736 5737 5738 5739 5740 5741 5743 5744 5744 5745 5745 5746 5746 5746 5746 5745 5744 5743 5742 5742 5742 5743 5743 5744 5745 5746 5747 5748 5750 5752 5753 5753 5754 5754 5755 5757 5761 5764 5765 5767 5770 5772 5772 5774 5776 5779 5781 5783 5785 5787 5789 5791 5793 5794 5796 5797 5798 5799 5800 5801 5802 5802 5803 5804 5804 5805 5805 5805 5805 5805 5804 5804 5804 5803 5802 5801 5800 5800 5800 5799 5798 5798 5797 5795 5792
5730 5732 5734 5735 5736 5737 5738 5739 5740 5742 5742 5742 5743 5744 5744 5744 5745 5745 5744 5742 5741 5741 5742 5742 5743 5743 5744 5745 5747 5748 5750 5751 5753 5755 5756 5757 5757 5758 5760 5763 5764 5765 5768 5769 5770 5771 5773 5776 5778 5780 5782 5784 5786 5789 5790 5792 5794 5795 5796 5797 5798 5798 5799 5799 5800 5801 5801 5802 5802 5802 5802 5801 5800 5800 5800 5799 5797 5796 5796 5795 5794 5794 5793 5793 5791 5789 5787
5728 5729 5731 5732 5733 5733 5734 5736 5737 5739 5740 5740 5741 5742 5742 5743 5744 5744 5744 5743 5742 5741 5741 5742 5742 5743 5744 5745 5747 5748 5750 5751 5753 5755 5756 5757 5758 5758 5759 5761 5763 5764 5766 5767 5768 5768 5770 5773 5775 5777 5779 5782 5784 5786 5788 5790 5792 5793 5794 5794 5795 5796 5796 5797 5797 5798 5798 5798 5798 5798 5798 5797 5796 5795 5794 5793 5792 5791 5791 5790 5789 5788 5788 5787 5785 5783 5781
5725 5726 5727 5729 5730 5731 5731 5732 5734 5736 5738 5739 5739 5740 5741 5742 5743 5743 5743 5743 5743 5742 5742 5742 5742 5743 5744 5745 5746 5748 5749 5751 5752 5753 5754 5755 5756 5757 5758 5759 5761 5763 5764 5765 5766 5766 5768 5770 5772 5775 5777 5780 5782 5784 5786 5788 5789 5790 5791 5792 5793 5793 5794 5794 5794 5794 5795 5795 5794 5794 5793 5792 5791 5790 5789 5788 5787 5787 5787 5786 5785 5784 5783 5781 5779 5778 5777
5721 5722 5723 5725 5727 5728 5729 5730 5732 5734 5736 5737 5738 5739 5740 5741 5742 5742 5743 5743 5744 5744 5744 5744 5744 5744 5745 5745 5746 5747 5748 5749 5750 5751 5751 5752 5754 5755 5757 5758 5760 5762 5763 5764 5765 5766 5767 5769 5771 5774 5777 5779 5781 5783 5784 5785 5787 5788 5788 5789 5790 5790 5791 5791 5791 5791 5791 5791 5790 5790 5789 5788 5786 5786 5785 5784 5783 5783 5783 5782 5781 5780 5779 5778 5775 5773 5771
5717 5718 5719 5722 5724 5725 5726 5728 5730 5732 5734 5735 5736 5737 5738 5740 5741 5742 5742 5743 5743 5744 5745 5745 5745 5746 5746 5747 5747 5748 5748 5749 5750 5750 5751 5753 5754 5755 5757 5759 5760 5762 5763 5764 5765 5766 5768 5769 5772 5774 5776 5777 5779 5781 5782 5783 5784 5785 5785 5786 5786 5786 5787 5787 5787 5787 5787 5787 5786 5785 5785 5784 5782 5782 5781 5780 5778 5777 5777 5777 5775 5774 5773 5772 5769 5766 5764
5713 5714 5716 5718 5721 5723 5724 5726 5728 5730 5732 5733 5734 5736 5737 5738 5739 5740 5741 5742 5743 5744 5744 5745 5746 5746 5747 5748 5748 5749 5749 5750 5751 5752 5753 5754 5755 5757 5758 5759 5761 5762 5763 5764 5765 5767 5768 5770 5771 5773 5774 5776 5777 5778 5779 5780 5781 5781 5782 5782 5783 5783 5783 5783 5783 5783 5783 5782 5782 5781 5781 5780 5778 5777 5776 5775 5773 5771 5770 5770 5768 5766 5765 5764 5762 5758 5755
5709 5711 5713 5715 5717 5719 5720 5723 5725 5728 5730 5731 5732 5734 5735 5737 5738 5739 5740 5741 5742 5743 5743 5744 5745 5746 5747 5748 5749 5749 5750 5751 5752 5753 5754 5755 5756 5757 5759 5760 5761 5762 5763 5764 5765 5767 5768 5769 5770 5771 5772 5774 5775 5776 5777 5777 5778 5778 5779 5779 5779 5779 5779 5779 5779 5779 5778 5778 5777 5776 5776 5774 5773 5771 5771 5769 5767 5765 5764 5763 5761 5759 5758 5757 5755 5751 5748
5706 5708 5710 5711 5713 5715 5717 5720 5723 5725 5727 5728 5730 5732 5734 5735 5736 5737 5739 5740 5741 5741 5742 5743 5744 5745 5747 5748 5749 5749 5751 5752 5753 5753 5754 5755 5756 5757 5758 5759 5761 5762 5762 5763 5765 5766 5767 5768 5769 5770 5771 5771 5772 5773 5774 5774 5775 5775 5775 5775 5775 5775 5775 5775 5774 5774 5773 5772 5771 5771 5770 5768 5767 5766 5765 5763 5761 5759 5758 5757 5754 5752 5751 5750 5747 5744 5741
5703 5705 5706 5708 5710 5711 5713 5716 5719 5721 5723 5725 5727 5730 5732 5733 5735 5736 5737 5738 5739 5740 5741 5743 5744 5745 5746 5747 5748 5749 5750 5751 5752 5753 5754 5755 5756 5757 5758 5759 5760 5761 5761 5762 5764 5765 5765 5766 5767 5767 5768 5769 5769 5770 5771 5771 5771 5771 5771 5771 5771 5770 5770 5770 5769 5768 5767 5767 5766 5765 5764 5762 5761 5760 5759 5757 5754 5753 5752 5750 5748 5745 5743 5742 5740 5736 5733
5699 5701 5703 5705 5707 5709 5711 5712 5715 5718 5721 5723 5725 5728 5730 5732 5733 5735 5736 5737 5738 5739 5740 5742 5743 5744 5745 5746 5747 5748 5749 5750 5751 5752 5752 5753 5754 5755 5756 5757 5758 5759 5760 5760 5761 5762 5763 5763 5764 5764 5765 5766 5766 5766 5767 5767 5767 5767 5767 5766 5766 5766 5765 5765 5764 5763 5762 5761 5760 5759 5758 5756 5755 5754 5752 5750 5749 5747 5746 5744 5742 5739 5737 5735 5733 5731 5728
5696 5698 5699 5701 5704 5707 5710 5712 5714 5717 5719 5721 5723 5726 5728 5730 5732 5733 5734 5735 5737 5738 5739 5740 5742 5743 5744 5745 5746 5747 5748 5749 5749 5750 5751 5752 5752 5753 5754 5755 5756 5756 5757 5758 5758 5759 5760 5760 5761 5761 5762 5762 5762 5763 5763 5763 5763 5762 5762 5762 5761 5761 5761 5760 5759 5758 5757 5757 5756 5754 5752 5751 5749 5748 5747 5744 5743 5742 5740 5738 5736 5734 5732 5730 5728 5725 5723
5693 5694 5695 5696 5698 5700 5704 5708 5712 5715 5717 5719 5721 5723 5726 5728 5729 5731 5732 5734 5735 5736 5738 5739 5740 5742 5743 5744 5745 5745 5746 5747 5747 5748 5749 5749 5750 5751 5752 5753 5753 5753 5754 5755 5755 5756 5756 5757 5757 5758 5758 5758 5759 5759 5759 5759 5758 5758 5758 5758 5757 5757 5756 5756 5755 5753 5752 5751 5751 5749 5747 5745 5743 5743 5742 5739 5737 5736 5735 5733 5731 5728 5726 5724 5721 5719 5716
5690 5691 5693 5696 5697 5699 5702 5706 5710 5713 5715 5717 5720 5722 5723 5725 5727 5728 5730 5731 5733 5735 5736 5738 5739 5740 5741 5742 5743 5744 5744 5745 5745 5746 5747 5747 5748 5748 5749 5750 5750 5750 5751 5751 5752 5752 5753 5753 5754 5754 5754 5755 5755 5755 5755 5754 5754 5754 5754 5753 5753 5752 5752 5751 5750 5749 5747 5746 5745 5744 5743 5740 5738 5737 5736 5735 5733 5731 5729 5727 5725 5723 5720 5718 5715 5712 5709
5688 5690 5692 5694 5696 5698 5701 5704 5708 5710 5713 5715 5717 5719 5721 5723 5724 5726 5727 5729 5731 5732 5734 5735 5737 5738 5739 5740 5740 5741 5742 5743 5743 5743 5744 5745 5745 5746 5746 5747 5747 5747 5748 5748 5749 5749 5749 5750 5750 5750 5750 5751 5751 5750 5750 5750 5750 5749 5749 5749 5748 5747 5746 5746 5745 5743 5742 5741 5739 5738 5737 5736 5734 5732 5730 5729 5728 5725 5723 5721 5718 5716 5713 5711 5709 5706 5703
5687 5688 5689 5689 5690 5694 5698 5701 5704 5707 5710 5712 5715 5717 5719 5721 5722 5724 5726 5727 5729 5730 5732 5733 5734 5735 5737 5737 5738 5739 5740 5740 5741 5741 5741 5741 5742 5743 5743 5743 5744 5744 5744 5745 5745 5745 5746 5746 5746 5746 5746 5746 5746 5746 5746 5745 5745 5744 5744 5744 5743 5741 5741 5740 5739 5738 5736 5734 5733 5732 5731 5730 5729 5727 5724 5722 5721 5719 5717 5714 5712 5709 5707 5704 5702 5700 5697